FW2784 Weather Reports


time (UTC)temp
C
wind
direction
speed
KPH
gust
KPH
rain 1hr
cm
rain 24hr
cm
rain mn
cm
humidity
%
barometer
mb
20260906123002 23 84 4.8 12.9 0.03 0.10 0.10 91 1013.7
20260906122503 23 70 4.8 11.3 0.03 0.10 0.10 91 1013.6
20260906122001 23 112 4.8 12.9 0.03 0.10 0.10 91 1013.5
20260906121502 23 5 4.8 12.9 0.03 0.10 0.10 91 1013.5
20260906121001 23 73 3.2 9.7 0.03 0.10 0.10 91 1013.4
20260906120004 23 38 3.2 6.4 0.00 0.08 0.08 92 1013.2
20260906115501 23 14 3.2 6.4 0.00 0.08 0.08 92 1013.1
20260906115003 23 20 3.2 4.8 0.00 0.08 0.08 92 1013.3
20260906114502 23 360 3.2 4.8 0.00 0.08 0.08 92 1013.4
20260906114001 23 360 1.6 4.8 0.00 0.08 0.08 91 1013.5
20260906113501 23 276 0.0 3.2 0.00 0.08 0.08 91 1013.6
20260906113001 23 276 0.0 3.2 0.00 0.08 0.08 91 1013.5
20260906112501 23 276 1.6 3.2 0.03 0.08 0.08 91 1013.5
20260906112001 23 165 0.0 1.6 0.03 0.08 0.08 91 1013.5
20260906111502 23 165 0.0 1.6 0.03 0.08 0.08 91 1013.5
20260906111001 23 165 0.0 1.6 0.03 0.08 0.08 91 1013.4
20260906110502 23 165 0.0 1.6 0.05 0.08 0.08 91 1013.5
20260906110003 23 165 0.0 1.6 0.05 0.08 0.08 91 1013.6
20260906104501 23 165 1.6 4.8 0.08 0.08 0.08 90 1013.6
20260906104001 23 209 3.2 4.8 0.08 0.08 0.08 90 1013.7
20260906103502 23 202 3.2 8.0 0.08 0.08 0.08 89 1013.9
20260906103002 23 217 3.2 8.0 0.08 0.08 0.08 89 1013.9
20260906102501 23 229 3.2 6.4 0.05 0.05 0.05 89 1013.9
20260906101003 24 212 4.8 11.3 0.05 0.05 0.05 88 1014.0
20260906100503 24 239 4.8 11.3 0.03 0.03 0.03 88 1014.0
20260906100004 25 250 4.8 11.3 0.03 0.03 0.03 88 1014.0
20260906095502 25 178 6.4 11.3 0.00 0.00 0.00 88 1014.1
20260906095002 25 213 6.4 11.3 0.00 0.00 0.00 87 1014.1
20260906094501 25 194 4.8 12.9 0.00 0.00 0.00 86 1013.8
20260906094001 25 205 3.2 8.0 0.00 0.00 0.00 85 1013.5
20260906093501 25 165 1.6 8.0 0.00 0.00 0.00 85 1013.5
20260906093001 25 198 1.6 3.2 0.00 0.00 0.00 85 1013.2
20260906092501 25 198 3.2 6.4 0.00 0.00 0.00 84 1013.0
20260906092001 25 198 3.2 6.4 0.00 0.00 0.00 84 1013.0
20260906091003 25 203 3.2 6.4 0.00 0.00 0.00 84 1013.1
20260906090501 25 246 3.2 6.4 0.00 0.00 0.00 84 1013.1
20260906085002 25 212 3.2 11.3 0.00 0.00 0.00 85 1012.8
20260906084502 25 130 3.2 8.0 0.00 0.00 0.00 85 1013.1
20260906084001 26 173 3.2 11.3 0.00 0.00 0.00 85 1013.2
20260906083502 26 123 3.2 11.3 0.00 0.00 0.00 87 1013.2
20260906083003 26 227 3.2 12.9 0.00 0.00 0.00 87 1013.3
20260906082502 26 266 3.2 12.9 0.00 0.00 0.00 88 1013.3
20260906081002 26 128 3.2 8.0 0.00 0.00 0.00 88 1013.3
20260906080501 26 232 3.2 8.0 0.00 0.00 0.00 88 1013.6
20260906080004 26 215 1.6 3.2 0.00 0.00 0.00 88 1013.6
20260906075503 26 258 1.6 3.2 0.00 0.00 0.00 88 1013.6
20260906075001 25 215 1.6 4.8 0.00 0.00 0.00 88 1013.6
20260906074502 25 215 1.6 4.8 0.00 0.00 0.00 88 1013.7
20260906073501 25 32 1.6 3.2 0.00 0.00 0.00 88 1013.6
20260906073002 25 32 1.6 4.8 0.00 0.00 0.00 88 1013.2
20260906072501 25 32 1.6 4.8 0.00 0.00 0.00 88 1013.1
20260906072002 25 32 1.6 4.8 0.00 0.00 0.00 88 1013.1
20260906071501 25 32 1.6 4.8 0.00 0.00 0.00 88 1013.2
20260906071001 25 32 1.6 4.8 0.00 0.00 0.00 88 1013.4
20260906070502 25 32 1.6 4.8 0.00 0.00 0.00 88 1013.3
20260906065500 25 45 3.2 6.4 0.00 0.00 0.00 87 1013.3
20260906065000 25 47 3.2 6.4 0.00 0.00 0.00 87 1013.2
20260906064501 25 61 1.6 4.8 0.00 0.00 0.00 87 1013.6
20260906064000 25 61 3.2 6.4 0.00 0.00 0.00 87 1013.6
20260906063500 25 66 3.2 6.4 0.00 0.00 0.00 87 1013.5
20260906063001 25 9 3.2 6.4 0.00 0.00 0.00 87 1013.5
20260906062459 25 342 1.6 6.4 0.00 0.00 0.00 87 1013.6
20260906062000 25 47 1.6 4.8 0.00 0.00 0.00 87 1013.8
20260906061500 25 47 1.6 3.2 0.00 0.00 0.00 87 1013.8
20260906060500 25 47 3.2 4.8 0.00 0.00 0.00 87 1013.8
20260906060005 25 59 1.6 4.8 0.00 0.00 0.00 86 1013.9
20260906055503 25 59 1.6 3.2 0.00 0.00 0.00 86 1014.0
20260906055004 25 59 1.6 3.2 0.00 0.00 0.00 86 1013.9
20260906054503 25 59 1.6 4.8 0.00 0.00 0.00 86 1014.0
20260906054006 25 59 1.6 4.8 0.00 0.00 0.00 86 1013.9
20260906053503 25 59 3.2 4.8 0.00 0.00 0.00 86 1013.9
20260906053003 25 59 1.6 4.8 0.00 0.00 0.00 86 1014.0
20260906052503 25 35 0.0 4.8 0.00 0.00 0.00 85 1014.0
20260906051503 25 35 1.6 3.2 0.00 0.00 0.00 85 1014.1
20260906051004 25 35 1.6 3.2 0.00 0.00 0.00 85 1014.1
20260906050503 26 35 1.6 3.2 0.00 0.00 0.00 85 1014.1
20260906050007 26 35 0.0 1.6 0.00 0.00 0.00 85 1014.1
20260906045502 26 35 1.6 3.2 0.00 0.00 0.00 85 1014.2
20260906045002 26 35 1.6 3.2 0.00 0.00 0.00 85 1014.1
20260906044502 26 35 1.6 3.2 0.00 0.00 0.00 85 1014.2
20260906043502 26 35 1.6 3.2 0.00 0.00 0.00 85 1014.2
20260906043002 26 35 1.6 3.2 0.00 0.00 0.00 84 1014.2
20260906042503 26 35 1.6 3.2 0.00 0.00 0.00 84 1014.3
20260906042003 26 35 1.6 3.2 0.00 0.00 0.00 84 1014.3
20260906041502 26 35 1.6 3.2 0.00 0.00 0.00 84 1014.2
20260906041003 26 35 1.6 3.2 0.00 0.00 0.00 84 1014.2
20260906040502 26 35 1.6 3.2 0.00 0.00 0.00 83 1014.1
20260906040004 26 35 1.6 4.8 0.00 0.00 0.00 83 1014.1
20260906035503 26 35 1.6 4.8 0.00 0.00 0.00 83 1014.0
20260906035003 26 61 3.2 4.8 0.00 0.00 0.00 83 1014.0
20260906034503 26 61 3.2 4.8 0.00 0.00 0.00 83 1014.0
20260906034003 26 61 3.2 4.8 0.00 0.00 0.00 83 1014.0
20260906033503 26 61 3.2 4.8 0.00 0.00 0.00 83 1014.1
20260906032502 26 61 3.2 6.4 0.00 0.00 0.00 83 1014.1
20260906032003 26 24 3.2 6.4 0.00 0.00 0.00 82 1014.0
20260906031502 26 39 3.2 4.8 0.00 0.00 0.00 82 1014.0
20260906031002 26 39 3.2 4.8 0.00 0.00 0.00 82 1013.9
20260906030502 26 14 1.6 4.8 0.00 0.00 0.00 82 1013.8
20260906030005 26 5 1.6 4.8 0.00 0.00 0.00 82 1013.9
20260906025005 27 5 1.6 4.8 0.00 0.00 0.00 81 1013.8
20260906024503 27 5 1.6 4.8 0.00 0.00 0.00 81 1013.9
20260906024003 27 58 1.6 4.8 0.00 0.00 0.00 81 1013.8
20260906023503 27 58 3.2 4.8 0.00 0.00 0.00 80 1013.6
20260906023003 27 36 3.2 4.8 0.00 0.00 0.00 80 1013.8
20260906022504 27 36 1.6 4.8 0.00 0.00 0.00 80 1013.8
20260906022005 27 336 3.2 4.8 0.00 0.00 0.00 80 1013.8
20260906021505 27 38 3.2 4.8 0.00 0.00 0.00 80 1013.7
20260906021003 27 38 3.2 4.8 0.00 0.00 0.00 80 1013.6
20260906020503 27 5 3.2 4.8 0.00 0.00 0.00 79 1013.7
20260906020004 27 11 3.2 4.8 0.00 0.00 0.00 79 1013.7
20260906015503 27 11 3.2 6.4 0.00 0.00 0.00 79 1013.7
20260906015005 27 355 3.2 6.4 0.00 0.00 0.00 79 1013.7
20260906014509 27 17 1.6 4.8 0.00 0.00 0.00 78 1013.5
20260906014003 27 44 3.2 4.8 0.00 0.00 0.00 78 1013.3
20260906013502 28 44 3.2 6.4 0.00 0.00 0.00 78 1013.1
20260906011503 28 18 3.2 6.4 0.00 0.00 0.00 77 1012.8
20260906011002 28 26 3.2 6.4 0.00 0.00 0.00 77 1012.8
20260906010503 28 33 3.2 6.4 0.00 0.00 0.00 76 1012.8
20260906010004 28 33 3.2 8.0 0.00 0.00 0.00 76 1012.6
20260906005501 28 30 4.8 8.0 0.00 0.00 0.00 76 1012.5
20260906005002 29 66 4.8 8.0 0.00 0.00 0.00 76 1012.6
20260906004502 29 43 4.8 8.0 0.00 0.00 0.00 76 1012.5
20260906004003 29 45 4.8 9.7 0.00 0.00 0.00 76 1012.5
20260906003003 30 53 4.8 9.7 0.00 0.00 0.00 75 1012.5
20260906002502 30 51 4.8 9.7 0.00 0.00 0.00 75 1012.5
20260906002001 30 57 6.4 12.9 0.00 0.00 0.00 75 1012.5
20260906001502 30 74 8.0 16.1 0.00 0.00 0.00 74 1012.4
20260906001002 30 89 6.4 14.5 0.00 0.00 0.00 74 1012.4
20260906000502 30 78 4.8 12.9 0.00 0.00 0.00 73 1012.4
20260906000005 31 49 4.8 9.7 0.00 0.00 0.00 73 1012.5
20260905235502 31 55 6.4 14.5 0.00 0.00 0.00 72 1012.5
20260905235004 31 36 6.4 14.5 0.00 0.00 0.00 72 1012.5
20260905234506 31 84 6.4 14.5 0.00 0.00 0.00 71 1012.6
20260905234003 31 13 6.4 11.3 0.00 0.00 0.00 70 1012.7
20260905233506 32 88 8.0 14.5 0.00 0.00 0.00 69 1012.6
20260905233002 32 38 8.0 17.7 0.00 0.00 0.00 68 1012.6
20260905232503 32 93 8.0 17.7 0.00 0.00 0.00 68 1012.5
20260905232006 32 18 8.0 16.1 0.00 0.00 0.00 67 1012.6
20260905231503 33 35 6.4 16.1 0.00 0.00 0.00 66 1012.6
20260905231002 33 88 8.0 14.5 0.00 0.00 0.00 65 1012.5
20260905230502 33 28 6.4 14.5 0.00 0.00 0.00 64 1012.3
20260905230004 33 65 4.8 12.9 0.00 0.00 0.00 64 1012.3
20260905225004 34 55 6.4 12.9 0.00 0.00 0.00 62 1012.3
20260905224004 35 75 6.4 19.3 0.00 0.00 0.00 60 1012.2
20260905223506 35 38 6.4 19.3 0.00 0.00 0.00 59 1012.2
20260905222512 35 331 6.4 14.5 0.00 0.00 0.00 57 1012.1
20260905221502 36 5 4.8 11.3 0.00 0.00 0.00 56 1012.0
20260905221002 36 28 3.2 9.7 0.00 0.00 0.00 54 1012.1
20260905220502 35 107 1.6 4.8 0.00 0.00 0.00 47 1012.1
20260905220005 35 320 1.6 4.8 0.00 0.00 0.00 47 1012.0
20260905215502 35 331 3.2 6.4 0.00 0.00 0.00 50 1011.9
20260905215006 36 261 3.2 6.4 0.00 0.00 0.00 48 1012.0
20260905214502 36 228 1.6 4.8 0.00 0.00 0.00 47 1012.0
20260905214002 36 93 1.6 4.8 0.00 0.00 0.00 47 1011.9
20260905213502 36 311 3.2 6.4 0.00 0.00 0.00 46 1012.0
20260905213002 36 344 3.2 8.0 0.00 0.00 0.00 46 1012.1
20260905212002 36 178 3.2 11.3 0.00 0.00 0.00 44 1012.1
20260905210004 36 10 3.2 6.4 0.00 0.00 0.00 45 1012.2
20260905205501 36 290 3.2 12.9 0.00 0.00 0.00 44 1012.3
20260905205003 37 259 4.8 12.9 0.00 0.00 0.00 44 1012.3
20260905204502 36 168 4.8 12.9 0.00 0.00 0.00 46 1012.3
20260905204003 36 154 3.2 9.7 0.00 0.00 0.00 46 1012.3
20260905203502 36 218 4.8 9.7 0.00 0.00 0.00 44 1012.5
20260905203004 37 159 3.2 9.7 0.00 0.00 0.00 45 1012.5
20260905202504 37 355 3.2 9.7 0.00 0.00 0.00 46 1012.5
20260905201003 37 119 4.8 11.3 0.00 0.00 0.00 45 1012.5
20260905200503 37 236 4.8 11.3 0.00 0.00 0.00 46 1012.5
20260905200004 37 118 3.2 14.5 0.00 0.00 0.00 46 1012.4
20260905195502 37 271 3.2 14.5 0.00 0.00 0.00 43 1012.6
20260905195002 37 340 3.2 9.7 0.00 0.00 0.00 44 1012.5
20260905194003 37 216 4.8 11.3 0.00 0.00 0.00 45 1012.7
20260905193502 37 46 4.8 14.5 0.00 0.00 0.00 47 1012.7
20260905193001 37 51 4.8 14.5 0.00 0.00 0.00 46 1012.8
20260905192503 37 44 4.8 12.9 0.00 0.00 0.00 49 1013.0
20260905192002 37 65 3.2 12.9 0.00 0.00 0.00 48 1013.1
20260905191502 36 104 3.2 12.9 0.00 0.00 0.00 48 1013.2
20260905191001 37 253 3.2 12.9 0.00 0.00 0.00 46 1013.3
20260905190501 37 261 3.2 9.7 0.00 0.00 0.00 49 1013.4
20260905190003 37 74 3.2 9.7 0.00 0.00 0.00 47 1013.4
20260905185502 37 10 3.2 9.7 0.00 0.00 0.00 49 1013.5
20260905184503 36 195 4.8 11.3 0.00 0.00 0.00 51 1013.7
20260905184004 35 171 6.4 11.3 0.00 0.00 0.00 52 1013.8
20260905183502 36 206 6.4 14.5 0.00 0.00 0.00 53 1013.9
20260905183001 36 184 4.8 14.5 0.00 0.00 0.00 52 1013.9
20260905182503 35 360 4.8 12.9 0.00 0.00 0.00 53 1014.0
20260905182002 35 227 3.2 9.7 0.00 0.00 0.00 56 1014.2
20260905181002 35 213 4.8 9.7 0.00 0.00 0.00 53 1014.3
20260905180502 36 236 3.2 9.7 0.00 0.00 0.00 51 1014.3
20260905180005 36 101 3.2 6.4 0.00 0.00 0.00 53 1014.5
20260905175502 35 134 3.2 6.4 0.00 0.00 0.00 55 1014.4
20260905175002 35 355 3.2 6.4 0.00 0.00 0.00 56 1014.5
20260905174502 35 288 4.8 12.9 0.00 0.00 0.00 55 1014.6
20260905174002 35 182 4.8 12.9 0.00 0.00 0.00 54 1014.7
20260905172002 35 246 3.2 9.7 0.00 0.00 0.00 55 1014.9
20260905171502 35 98 3.2 9.7 0.00 0.00 0.00 56 1014.9
20260905171002 35 108 3.2 12.9 0.00 0.00 0.00 57 1015.2
20260905170501 34 162 4.8 12.9 0.00 0.00 0.00 56 1015.2
20260905170005 34 219 4.8 9.7 0.00 0.00 0.00 56 1015.2
20260905165502 34 191 3.2 9.7 0.00 0.00 0.00 56 1015.4
20260905165001 35 155 4.8 17.7 0.00 0.00 0.00 54 1015.4
20260905164502 35 210 4.8 17.7 0.00 0.00 0.00 54 1015.5
20260905164002 35 190 3.2 11.3 0.00 0.00 0.00 57 1015.5
20260905163502 35 227 3.2 11.3 0.00 0.00 0.00 57 1015.6
20260905163003 34 319 3.2 9.7 0.00 0.00 0.00 60 1015.5
20260905162502 34 313 3.2 8.0 0.00 0.00 0.00 59 1015.6
20260905162002 33 107 3.2 8.0 0.00 0.00 0.00 60 1015.7
20260905161502 33 166 3.2 8.0 0.00 0.00 0.00 62 1015.7
20260905160503 33 230 4.8 9.7 0.00 0.00 0.00 62 1015.8
20260905160003 33 292 3.2 11.3 0.00 0.00 0.00 62 1015.7
20260905155502 33 172 3.2 6.4 0.00 0.00 0.00 63 1015.7
20260905155003 33 199 3.2 9.7 0.00 0.00 0.00 62 1015.7
20260905154502 33 238 3.2 9.7 0.00 0.00 0.00 65 1015.6
20260905154001 32 222 4.8 8.0 0.00 0.00 0.00 67 1015.6
20260905153002 32 275 4.8 11.3 0.00 0.00 0.00 67 1015.6
20260905152503 32 254 4.8 9.7 0.00 0.00 0.00 66 1015.6
20260905152002 32 163 4.8 9.7 0.00 0.00 0.00 68 1015.6
20260905151503 31 212 4.8 11.3 0.00 0.00 0.00 68 1015.6
20260905151002 31 244 3.2 11.3 0.00 0.00 0.00 68 1015.7
20260905150501 31 170 3.2 8.0 0.00 0.00 0.00 69 1015.6
20260905150003 31 264 3.2 9.7 0.00 0.00 0.00 71 1015.6
20260905145500 31 238 4.8 9.7 0.00 0.00 0.00 70 1015.7
20260905145000 31 196 4.8 9.7 0.00 0.00 0.00 71 1015.7
20260905144501 30 216 3.2 9.7 0.00 0.00 0.00 71 1015.8
20260905144000 30 252 3.2 9.7 0.00 0.00 0.00 72 1015.7
20260905143002 30 229 3.2 8.0 0.00 0.00 0.00 73 1015.8
20260905142500 30 281 3.2 6.4 0.00 0.00 0.00 74 1015.8
20260905142001 30 231 3.2 6.4 0.00 0.00 0.00 75 1015.8
20260905141501 29 221 3.2 6.4 0.00 0.00 0.00 76 1015.8
20260905141001 29 142 3.2 6.4 0.00 0.00 0.00 75 1015.8
20260905140002 28 211 4.8 11.3 0.00 0.00 0.00 78 1015.8
20260905135501 28 246 4.8 11.3 0.00 0.00 0.00 77 1015.9
20260905134501 28 159 3.2 9.7 0.00 0.00 0.00 79 1015.9
20260905133001 27 237 1.6 4.8 0.00 0.00 0.00 82 1015.9
20260905132501 27 226 0.0 4.8 0.00 0.00 0.00 83 1015.9
20260905132001 26 160 0.0 3.2 0.00 0.00 0.00 85 1015.8
20260905131001 25 160 0.0 3.2 0.00 0.00 0.00 92 1016.0
20260905130003 23 100 1.6 3.2 0.00 0.00 0.00 92 1016.0
20260905125500 23 27 0.0 3.2 0.00 0.00 0.00 92 1016.0
20260905125000 23 27 0.0 0.0 0.00 0.00 0.00 92 1016.0
20260905124500 23 27 0.0 0.0 0.00 0.00 0.00 92 1015.9
20260905124000 23 27 0.0 0.0 0.00 0.00 0.00 92 1016.0
20260905123501 23 27 0.0 0.0 0.00 0.00 0.00 91 1016.0